W1SCW Weather Reports


time (UTC)temp
C
wind
direction
speed
KPH
gust
KPH
rain 1hr
cm
rain 24hr
cm
rain mn
cm
humidity
%
barometer
mb
20260502170400 21 25 12.9 14.5 0.00 0.00 0.00 52 1019.7
20260502164347 21 16 9.7 16.1 0.00 0.00 0.00 58 1019.5
20260502163843 21 12 8.0 12.9 0.00 0.00 0.00 60 1019.3
20260502163339 20 27 8.0 14.5 0.00 0.00 0.00 61 1019.5
20260502162837 21 357 6.4 12.9 0.00 0.00 0.00 60 1019.6
20260502162333 21 319 3.2 11.3 0.00 0.00 0.00 62 1019.7
20260502161831 20 17 6.4 12.9 0.00 0.00 0.00 59 1019.5
20260502161327 20 356 9.7 16.1 0.00 0.00 0.00 63 1019.5
20260502160825 20 14 6.4 14.5 0.00 0.00 0.00 63 1019.3
20260502160324 20 340 6.4 11.3 0.00 0.00 0.00 63 1019.3
20260502152259 18 23 8.0 12.9 0.00 0.00 0.00 68 1019.2
20260502151756 18 38 6.4 24.1 0.00 0.00 0.00 67 1019.1
20260502151253 18 5 8.0 14.5 0.00 0.00 0.00 69 1019.2
20260502150751 18 355 11.3 16.1 0.00 0.00 0.00 69 1019.0
20260502150247 18 19 4.8 16.1 0.00 0.00 0.00 70 1019.2
20260502130635 13 8 3.2 6.4 0.00 0.00 0.00 90 1018.2
20260502130133 13 7 4.8 8.0 0.00 0.00 0.00 91 1018.1
20260502123619 12 3 3.2 8.0 0.00 0.00 0.00 93 1017.7
20260502123115 12 308 6.4 6.4 0.00 0.00 0.00 95 1017.5
20260502122612 12 331 1.6 3.2 0.00 0.00 0.00 96 1017.2
20260502122109 11 2 3.2 6.4 0.00 0.00 0.00 97 1017.6
20260502121607 11 355 4.8 6.4 0.00 0.00 0.00 97 1017.2
20260502121104 11 354 3.2 4.8 0.00 0.00 0.00 98 1017.2
20260502120600 11 22 3.2 6.4 0.00 0.00 0.00 98 1017.1
20260502115556 11 5 3.2 4.8 0.00 0.00 0.00 98 1017.3
20260502115045 11 351 3.2 4.8 0.00 0.00 0.00 98 1016.8
20260502114542 11 1 4.8 6.4 0.00 0.00 0.00 97 1017.0
20260502114039 11 13 1.6 4.8 0.00 0.00 0.00 97 1016.9
20260502113537 11 3 3.2 4.8 0.00 0.00 0.00 97 1016.7
20260502113035 11 339 3.2 4.8 0.00 0.00 0.00 97 1016.6
20260502112533 11 344 3.2 4.8 0.00 0.00 0.00 97 1016.8
20260502112030 11 351 3.2 4.8 0.00 0.00 0.00 97 1016.7
20260502111527 11 341 1.6 4.8 0.00 0.00 0.00 97 1016.5
20260502111025 11 25 1.6 6.4 0.00 0.00 0.00 96 1016.5
20260502110522 11 34 6.4 8.0 0.00 0.00 0.00 96 1016.6
20260502110020 11 357 8.0 8.0 0.00 0.00 0.00 96 1016.5
20260502105517 11 352 6.4 9.7 0.00 0.00 0.00 95 1016.4
20260502105014 11 0 3.2 8.0 0.00 0.00 0.00 95 1016.3
20260502104511 11 353 1.6 9.7 0.00 0.00 0.00 94 1016.4
20260502104009 11 346 3.2 6.4 0.00 0.00 0.00 94 1016.2
20260502103506 11 5 4.8 6.4 0.00 0.00 0.00 94 1016.3
20260502103004 11 349 1.6 8.0 0.00 0.00 0.00 94 1016.1
20260502102459 11 338 1.6 6.4 0.00 0.00 0.00 94 1016.1
20260502101956 11 5 0.0 8.0 0.00 0.00 0.00 94 1016.1
20260502101454 11 348 6.4 6.4 0.00 0.00 0.00 94 1015.9
20260502100953 11 342 4.8 6.4 0.00 0.00 0.00 94 1015.9
20260502100452 11 341 1.6 6.4 0.00 0.00 0.00 94 1016.0
20260502091426 12 43 4.8 6.4 0.00 0.00 0.00 90 1014.8
20260502090922 12 7 0.0 6.4 0.00 0.00 0.00 90 1014.8
20260502090420 12 5 1.6 6.4 0.00 0.00 0.00 90 1014.8
20260502071314 13 1 6.4 9.7 0.00 0.00 0.00 93 1014.6
20260502070812 13 356 3.2 6.4 0.00 0.00 0.00 93 1014.7
20260502070309 13 42 6.4 14.5 0.00 0.00 0.00 92 1014.9
20260502065808 13 2 4.8 9.7 0.00 0.00 0.00 93 1014.9
20260502065306 13 29 9.7 11.3 0.00 0.00 0.00 93 1014.8
20260502064804 12 9 6.4 9.7 0.00 0.00 0.00 93 1014.7
20260502064301 12 16 3.2 9.7 0.00 0.00 0.00 94 1014.8
20260502063758 12 31 4.8 6.4 0.00 0.00 0.00 94 1014.6
20260502063256 12 15 4.8 11.3 0.00 0.00 0.00 94 1014.5
20260502062753 12 33 6.4 9.7 0.00 0.00 0.00 93 1014.7
20260502062251 12 322 4.8 12.9 0.00 0.00 0.00 93 1014.5
20260502061750 13 344 9.7 14.5 0.00 0.00 0.00 93 1014.5
20260502061248 13 12 6.4 14.5 0.00 0.00 0.00 93 1014.4
20260502060747 13 4 4.8 8.0 0.00 0.00 0.00 94 1014.4
20260502060243 13 21 6.4 11.3 0.00 0.00 0.00 94 1014.5
20260502055742 13 28 3.2 9.7 0.00 0.00 0.00 94 1014.5
20260502055239 13 328 9.7 20.9 0.00 0.00 0.00 94 1014.5
20260502054738 13 7 8.0 12.9 0.00 0.00 0.00 94 1014.3
20260502054235 13 38 14.5 16.1 0.00 0.00 0.00 94 1014.4
20260502053733 13 14 14.5 17.7 0.00 0.00 0.00 94 1014.3
20260502053230 13 29 4.8 19.3 0.00 0.00 0.00 94 1014.2
20260502052728 13 39 6.4 14.5 0.00 0.00 0.00 94 1014.3
20260502052226 13 326 3.2 12.9 0.00 0.00 0.00 93 1014.2
20260502051723 13 20 8.0 19.3 0.00 0.00 0.00 94 1014.3
20260502051222 13 20 8.0 12.9 0.00 0.00 0.00 94 1014.2
20260502050717 13 338 6.4 14.5 0.00 0.00 0.00 95 1014.3
20260502050214 13 34 9.7 14.5 0.00 0.00 0.00 95 1014.1
20260502045711 13 11 9.7 12.9 0.00 0.00 0.00 95 1014.1
20260502045208 13 328 8.0 14.5 0.00 0.00 0.00 95 1014.0
20260502044705 13 26 9.7 19.3 0.00 0.00 0.00 95 1014.0
20260502044201 13 355 9.7 14.5 0.00 0.00 0.00 95 1014.1
20260502043659 13 26 6.4 11.3 0.00 0.00 0.00 95 1014.1
20260502043156 13 345 8.0 11.3 0.00 0.00 0.00 96 1014.2
20260502042655 13 4 6.4 14.5 0.00 0.00 0.00 96 1013.9
20260502042153 13 12 6.4 12.9 0.00 0.00 0.00 96 1014.0
20260502041650 13 350 8.0 16.1 0.00 0.00 0.00 97 1014.1
20260502041147 13 26 6.4 17.7 0.00 0.00 0.00 97 1014.1
20260502040643 13 24 8.0 16.1 0.00 0.00 0.00 97 1014.0
20260502040141 13 40 9.7 11.3 0.00 0.00 0.00 97 1014.1
20260502035636 13 14 8.0 17.7 0.00 8.23 8.23 98 1014.3
20260502035133 13 7 6.4 14.5 0.00 8.23 8.23 98 1014.3
20260502034632 13 2 8.0 17.7 0.00 8.23 8.23 98 1014.3
20260502034130 13 3 6.4 17.7 0.00 8.23 8.23 98 1014.2
20260502033627 13 2 9.7 11.3 0.00 8.23 8.23 98 1014.2
20260502033125 12 2 12.9 16.1 0.00 8.23 8.23 98 1013.9
20260502032621 13 16 9.7 16.1 0.00 8.23 8.23 98 1013.8
20260502032117 12 17 6.4 16.1 0.00 8.23 8.23 98 1013.7
20260502031615 12 356 9.7 14.5 0.00 8.23 8.23 98 1013.9
20260502031113 13 357 8.0 8.0 0.00 8.23 8.23 98 1013.7
20260502030612 13 6 16.1 19.3 0.00 8.23 8.23 98 1013.4
20260502030110 13 10 3.2 14.5 0.00 8.23 8.23 99 1013.4
20260502025606 13 344 8.0 12.9 0.00 8.23 8.23 99 1013.3
20260502025104 13 0 8.0 17.7 0.00 8.23 8.23 99 1013.1
20260502024601 13 2 6.4 16.1 0.00 8.23 8.23 99 1012.9
20260502024100 13 7 6.4 19.3 0.00 8.23 8.23 99 1012.7
20260502023557 13 28 11.3 16.1 0.00 8.23 8.23 99 1012.5
20260502023054 13 357 9.7 20.9 0.00 8.23 8.23 99 1012.5
20260502022551 13 4 6.4 17.7 0.18 8.23 8.23 99 1012.6
20260502022048 13 0 11.3 16.1 0.43 8.18 8.18 99 1012.3
20260502021545 13 4 6.4 12.9 0.43 8.18 8.18 99 1012.4
20260502021042 13 15 14.5 22.5 0.00 8.13 8.13 99 1012.6
20260502020540 13 3 6.4 19.3 0.36 8.13 8.13 99 1012.4
20260502020036 13 354 9.7 17.7 0.36 8.13 8.13 99 1012.0
20260502015535 13 18 8.0 9.7 0.00 8.05 8.05 99 1012.2
20260502015030 13 19 4.8 11.3 0.05 8.05 8.05 99 1012.2
20260502014527 13 4 12.9 16.1 0.13 8.05 8.05 99 1012.1
20260502014025 13 37 3.2 14.5 0.13 8.05 8.05 99 1012.2
20260502013520 13 344 11.3 16.1 0.13 8.05 8.05 99 1012.1
20260502013017 13 18 6.4 11.3 0.13 8.03 8.03 99 1012.4
20260502012514 14 347 9.7 9.7 0.30 8.03 8.03 99 1011.7
20260502012012 14 20 8.0 12.9 0.36 7.98 7.98 99 1011.5
20260502011508 15 25 11.3 14.5 0.48 7.98 7.98 99 1011.4
20260502011004 15 12 9.7 12.9 0.48 7.90 7.90 99 1011.4
20260502010502 15 40 8.0 14.5 0.48 7.90 7.90 99 1011.7
20260502005957 15 358 6.4 9.7 0.13 7.82 7.82 99 1011.5
20260502005456 15 23 3.2 8.0 0.05 7.82 7.82 99 1011.8
20260502004954 15 301 8.0 8.0 0.18 7.82 7.82 99 1012.4
20260502004449 15 22 4.8 8.0 0.18 7.80 7.80 99 1011.7
20260502003946 15 23 6.4 14.5 0.18 7.77 7.77 99 1011.0
20260502003444 15 32 6.4 19.3 0.18 7.77 7.77 99 1010.3
20260502002939 15 33 6.4 17.7 0.23 7.75 7.75 99 1010.2
20260502002437 15 12 4.8 14.5 0.36 7.72 7.72 99 1010.3
20260502001934 15 10 12.9 17.7 0.23 7.72 7.72 99 1010.3
20260502001432 15 20 8.0 11.3 0.00 7.67 7.67 99 1010.8
20260502000930 15 6 6.4 9.7 0.00 7.67 7.67 99 1011.1
20260502000428 15 350 3.2 6.4 0.30 7.67 7.67 99 1011.2
20260501235923 15 40 11.3 11.3 0.53 7.67 7.67 99 1010.8
20260501235420 15 1 9.7 14.5 0.61 7.62 7.62 99 1010.7
20260501234914 15 3 4.8 9.7 0.48 7.57 7.57 99 1011.4
20260501234412 15 356 4.8 8.0 0.18 7.52 7.52 99 1011.5
20260501233910 15 0 4.8 14.5 0.05 7.49 7.49 99 1010.7
20260501233407 15 29 8.0 12.9 0.00 7.49 7.49 99 1009.8
20260501232903 15 31 6.4 9.7 0.00 7.49 7.49 99 1010.1
20260501232400 15 30 6.4 14.5 0.00 7.49 7.49 99 1010.0
20260501231857 15 13 6.4 8.0 1.02 7.49 7.49 99 1009.6
20260501231355 15 352 6.4 16.1 1.02 7.49 7.49 99 1009.0
20260501230854 15 349 9.7 14.5 1.50 7.32 7.32 99 1008.8
20260501230353 15 19 12.9 16.1 1.55 7.32 7.32 99 1009.4
20260501225849 15 27 9.7 16.1 0.18 7.06 7.06 99 1009.6
20260501225347 15 27 4.8 6.4 0.23 7.06 7.06 99 1010.7
20260501224843 15 358 8.0 11.3 0.13 7.04 7.04 99 1010.8
20260501224340 15 3 11.3 17.7 0.00 7.01 7.01 99 1008.8
20260501223837 15 330 4.8 17.7 0.00 7.01 7.01 99 1008.6
20260501223333 15 33 8.0 14.5 0.00 7.01 7.01 99 1008.8
20260501222829 15 19 8.0 14.5 0.00 7.01 7.01 99 1008.4
20260501222327 16 15 6.4 12.9 0.00 7.01 7.01 99 1008.6
20260501221823 15 3 8.0 20.9 0.00 7.01 7.01 99 1008.3
20260501221320 16 23 11.3 20.9 0.00 7.01 7.01 99 1008.1
20260501220819 16 13 11.3 19.3 0.00 7.01 7.01 99 1008.5
20260501220315 16 12 9.7 9.7 0.00 7.01 7.01 99 1008.8
20260501215812 16 41 11.3 17.7 0.00 7.01 7.01 99 1009.0
20260501215308 16 17 6.4 16.1 0.00 7.01 7.01 99 1009.4
20260501214803 16 20 9.7 11.3 0.00 7.01 7.01 99 1009.6
20260501214259 16 0 6.4 9.7 0.05 7.01 7.01 99 1009.4
20260501213755 16 353 4.8 6.4 0.05 7.01 7.01 99 1009.5
20260501213252 16 13 3.2 4.8 0.18 7.01 7.01 99 1009.6
20260501212748 16 13 3.2 4.8 0.48 7.01 7.01 99 1009.8
20260501212244 16 60 4.8 9.7 0.36 6.96 6.96 99 1009.8
20260501211742 16 1 6.4 8.0 0.05 6.91 6.91 99 1009.4
20260501211239 16 36 6.4 14.5 0.05 6.91 6.91 99 1009.4
20260501210736 16 35 6.4 11.3 0.05 6.91 6.91 99 1009.2
20260501210232 16 11 4.8 12.9 0.00 6.91 6.91 99 1008.9
20260501205729 16 19 4.8 9.7 0.05 6.91 6.91 99 1008.1
20260501205226 16 26 14.5 17.7 0.18 6.91 6.91 99 1007.8
20260501204723 16 24 11.3 16.1 0.36 6.88 6.88 99 1008.6
20260501204220 16 353 3.2 6.4 0.30 6.88 6.88 99 1008.9
20260501203716 16 8 6.4 19.3 0.18 6.83 6.83 99 1008.4
20260501203213 16 351 6.4 20.9 0.79 6.81 6.81 99 1008.4
20260501202709 16 0 4.8 6.4 0.71 6.78 6.78 99 1008.9
20260501202207 16 357 6.4 11.3 0.13 6.68 6.68 99 1008.3
20260501201704 16 41 8.0 14.5 0.43 6.68 6.68 99 1007.9
20260501201201 16 20 8.0 11.3 0.53 6.63 6.63 99 1008.1
20260501200657 16 20 8.0 12.9 0.61 6.60 6.60 99 1007.9
20260501200155 16 27 12.9 17.7 0.43 6.55 6.55 99 1007.6
20260501195652 16 15 4.8 12.9 0.84 6.50 6.50 99 1008.3
20260501195148 17 32 8.0 8.0 0.71 6.45 6.45 99 1008.2
20260501194644 17 359 4.8 11.3 0.13 6.35 6.35 99 1008.4
20260501194139 17 6 4.8 9.7 0.00 6.32 6.32 99 1007.7
20260501193637 17 18 8.0 11.3 0.00 6.32 6.32 99 1007.4
20260501193135 16 31 9.7 16.1 0.00 6.32 6.32 99 1007.9
20260501192632 17 343 6.4 11.3 0.05 6.32 6.32 99 1008.3
20260501192129 17 354 3.2 6.4 0.05 6.32 6.32 99 1008.0
20260501191626 17 13 6.4 8.0 0.13 6.32 6.32 99 1008.0
20260501191123 17 337 4.8 11.3 0.23 6.32 6.32 99 1007.6
20260501190620 16 4 6.4 17.7 0.18 6.30 6.30 99 1007.3
20260501190115 16 334 3.2 6.4 0.23 6.27 6.27 99 1008.8
20260501185611 17 351 4.8 4.8 0.30 6.25 6.25 99 1008.4
20260501185107 16 36 3.2 6.4 0.30 6.22 6.22 99 1008.3
20260501184604 16 356 4.8 11.3 0.23 6.20 6.20 99 1008.2
20260501184058 16 1 6.4 9.7 0.48 6.17 6.17 99 1008.2
20260501183555 16 6 6.4 14.5 1.32 6.15 6.15 99 1007.6
20260501183052 16 13 4.8 8.0 1.14 6.07 6.07 99 1008.0
20260501182548 16 311 0.0 3.2 0.36 5.92 5.92 99 1007.8
20260501182045 16 103 0.0 8.0 0.18 5.87 5.87 99 1007.3
20260501181543 16 5 4.8 9.7 0.18 5.87 5.87 99 1007.3
20260501181039 16 45 6.4 8.0 0.18 5.84 5.84 99 1007.0
20260501180537 16 307 4.8 9.7 0.53 5.82 5.82 99 1006.4
20260501180033 16 310 3.2 14.5 0.66 5.82 5.82 99 1006.3
20260501175530 16 357 6.4 8.0 0.30 5.74 5.74 99 1007.6
20260501175026 16 14 3.2 11.3 0.18 5.69 5.69 99 1007.7
20260501174524 16 12 6.4 8.0 0.13 5.69 5.69 99 1008.3
20260501174021 17 21 6.4 11.3 0.18 5.66 5.66 99 1008.4
20260501173518 16 42 3.2 14.5 0.18 5.66 5.66 99 1008.5
20260501173015 16 10 6.4 12.9 0.13 5.64 5.64 99 1008.8